Rome, NY

3:45 PM EST on December 05, 2019 (GMT -0500)
Griffiss

Weather History for KRME - September, 2019

Change the Weather History Date:

Sunday, September 15, 2019

  Actual Average Record
Temperature  
Mean Temperature 61 °F -  
Max Temperature 73 °F 68 °F 86 °F (2018)
Min Temperature 50 °F 47 °F 37 °F (1984)
Degree Days  
Heating Degree Days 4    
Growing Degree Days 11 (Base 50)    
Moisture  
Dew Point 57 °F    
Average Humidity 90    
Maximum Humidity 100    
Minimum Humidity 66    
Precipitation  
Precipitation 0.00 in - - ()
Sea Level Pressure  
Sea Level Pressure 30.16 in    
Wind  
Wind Speed 2 mph (WNW)    
Max Wind Speed 10 mph    
Max Gust Speed -    
Visibility 9 miles    
Events Rain    
Averages and records for this station are not official NWS values.
T = Trace of Precipitation, MM = Missing Value Source: NWS Daily Summary

Daily Weather History Graph

Daily Weather History Graph

Search for Another Location

Airport or City:

Astronomy

Sep. 15, 2019 Rise Set
Actual Time 6:40 AM EDT 7:12 PM EDT
Civil Twilight 6:12 AM EDT 7:40 PM EDT
Nautical Twilight 5:38 AM EDT 8:14 PM EDT
Astronomical Twilight 5:03 AM EDT 8:49 PM EDT
Moon 8:17 PM EDT (9/15) 7:49 AM EDT (9/15)
Length of Visible Light 13h 28m
Length of Day
12h 31m
Full, 98% of the Moon is Illuminated
Sep 15
Full
Sep 21
Last Quarter
Sep 28
New
Oct 5
First Quarter
Oct 13
Full

Hourly Weather History & Observations

Time (EDT) Temp. Dew Point Humidity Pressure Visibility Wind Dir Wind Speed Gust Speed Precip Events Conditions
12:53 AM 54.0 °F 54.0 °F 100% 30.19 in 10.0 mi Calm Calm - N/A   Clear
1:53 AM 52.0 °F 52.0 °F 100% 30.19 in 9.0 mi Calm Calm - N/A   Clear
2:53 AM 52.0 °F 52.0 °F 100% 30.18 in 10.0 mi Calm Calm - N/A   Clear
3:53 AM 50.0 °F 50.0 °F 100% 30.18 in 10.0 mi Calm Calm - N/A   Clear
4:37 AM 51.1 °F 51.1 °F 100% 30.19 in 10.0 mi Calm Calm - N/A   Mostly Cloudy
4:53 AM 51.1 °F 51.1 °F 100% 30.19 in 10.0 mi Calm Calm - N/A   Overcast
5:53 AM 52.0 °F 52.0 °F 100% 30.19 in 10.0 mi Calm Calm - N/A   Overcast
6:21 AM 51.1 °F 51.1 °F 100% 30.20 in 10.0 mi Calm Calm - N/A   Mostly Cloudy
6:34 AM 51.1 °F 51.1 °F 100% 30.20 in 10.0 mi Calm Calm - N/A   Scattered Clouds
6:42 AM 51.1 °F 51.1 °F 100% 30.20 in 10.0 mi Calm Calm - N/A   Mostly Cloudy
6:53 AM 52.0 °F 52.0 °F 100% 30.19 in 10.0 mi Calm Calm - N/A   Mostly Cloudy
7:19 AM 52.0 °F 52.0 °F 100% 30.20 in 10.0 mi SE 3.5 mph - N/A   Mostly Cloudy
7:26 AM 52.0 °F 52.0 °F 100% 30.20 in 10.0 mi SSE 3.5 mph - N/A   Mostly Cloudy
7:31 AM 53.1 °F 53.1 °F 100% 30.20 in 1.0 mi Calm Calm - N/A   Mostly Cloudy
7:40 AM 53.1 °F 53.1 °F 100% 30.20 in 1.0 mi Calm Calm - N/A   Mostly Cloudy
7:53 AM 54.0 °F 54.0 °F 100% 30.19 in 0.8 mi Calm Calm - N/A   Overcast
8:00 AM 55.0 °F 55.0 °F 100% 30.20 in 1.8 mi Calm Calm - N/A   Overcast
8:09 AM 55.0 °F 55.0 °F 100% 30.20 in 7.0 mi Calm Calm - N/A   Mostly Cloudy
8:53 AM 59.0 °F 57.9 °F 96% 30.19 in 10.0 mi Calm Calm - N/A   Overcast
9:53 AM 62.1 °F 59.0 °F 90% 30.18 in 10.0 mi Calm Calm - N/A   Mostly Cloudy
10:53 AM 66.0 °F 60.1 °F 81% 30.17 in 10.0 mi Calm Calm - N/A   Partly Cloudy
11:16 AM 66.0 °F 59.0 °F 78% 30.17 in 10.0 mi Variable 3.5 mph - N/A   Mostly Cloudy
11:33 AM 66.9 °F 59.0 °F 76% 30.17 in 10.0 mi Calm Calm - N/A   Scattered Clouds
11:41 AM 66.9 °F 60.1 °F 79% 30.17 in 10.0 mi NW 4.6 mph - N/A   Mostly Cloudy
11:53 AM 68.0 °F 59.0 °F 73% 30.17 in 10.0 mi Variable 6.9 mph - N/A   Mostly Cloudy
12:04 PM 68.0 °F 60.1 °F 76% 30.16 in 10.0 mi NW 9.2 mph - N/A   Mostly Cloudy
12:32 PM 69.1 °F 60.1 °F 73% 30.16 in 10.0 mi NNW 3.5 mph - N/A   Mostly Cloudy
12:40 PM 70.0 °F 60.1 °F 71% 30.16 in 10.0 mi West 9.2 mph - N/A   Mostly Cloudy
12:53 PM 69.1 °F 60.1 °F 73% 30.16 in 10.0 mi West 6.9 mph - N/A   Mostly Cloudy
1:53 PM 72.0 °F 60.1 °F 66% 30.13 in 10.0 mi NW 9.2 mph - N/A   Scattered Clouds
2:53 PM 71.1 °F 59.0 °F 66% 30.12 in 10.0 mi West 10.4 mph - 0.00 in Rain Light Rain
3:53 PM 69.1 °F 61.0 °F 75% 30.12 in 10.0 mi WNW 6.9 mph - 0.00 in Rain Light Rain
4:53 PM 66.9 °F 61.0 °F 81% 30.11 in 10.0 mi WNW 6.9 mph - 0.00 in Rain Light Rain
5:53 PM 66.0 °F 62.1 °F 87% 30.10 in 10.0 mi NW 10.4 mph - 0.00 in   Overcast
6:03 PM 64.9 °F 61.0 °F 87% 30.11 in 10.0 mi NW 10.4 mph - N/A   Mostly Cloudy
6:53 PM 64.0 °F 59.0 °F 84% 30.11 in 10.0 mi WNW 6.9 mph - N/A   Overcast
7:53 PM 63.0 °F 60.1 °F 90% 30.12 in 10.0 mi WNW 5.8 mph - N/A   Overcast
8:53 PM 62.1 °F 60.1 °F 93% 30.13 in 10.0 mi West 3.5 mph - 0.00 in   Overcast
9:53 PM 61.0 °F 59.0 °F 93% 30.12 in 10.0 mi NW 4.6 mph - N/A   Overcast
10:21 PM 60.1 °F 59.0 °F 96% 30.13 in 10.0 mi Calm Calm - N/A   Mostly Cloudy
10:53 PM 61.0 °F 60.1 °F 97% 30.12 in 10.0 mi Calm Calm - N/A   Overcast
11:03 PM 61.0 °F 60.1 °F 97% 30.13 in 10.0 mi Calm Calm - N/A   Overcast
11:53 PM 61.0 °F 60.1 °F 97% 30.12 in 10.0 mi West 3.5 mph - N/A   Overcast